GPS BIIF-11 (PRN 10)

Last updated on Mon Jan 20 2020 04:32:17 GMT+0000 (Coordinated Universal Time)

1 41019U 15062A 20019.44144614 -.00000044 00000-0 00000+0 0 9997 2 41019 55.2697 122.6702 0054190 207.7152 151.9885 2.00564474 30882

Satellite not in orbit

GPS BIIF-11 (PRN 10)